GW4578 Weather Reports


time (UTC)temp
F
wind
direction
speed
knots
gust
knots
rain 1hr
in
rain 24hr
in
rain mn
in
humidity
%
barometer
mb
20260504151005 49 327 9.6 17.4 0.00 0.03 0.00 53 1011.4
20260504150511 49 326 8.7 14.8 0.00 0.03 0.00 53 1011.4
20260504141010 50 318 5.2 11.3 0.00 0.03 0.00 54 1011.2
20260504140506 50 327 7.0 12.2 0.00 0.03 0.00 53 1011.2
20260504130507 47 337 2.6 7.0 0.00 0.03 0.00 64 1010.3
20260504110508 47 288 1.7 7.8 0.00 0.03 0.00 59 1008.4
20260504100503 53 273 4.3 7.0 0.00 0.03 0.00 48 1005.8
20260504082006 53 271 3.5 7.8 0.00 0.03 0.00 47 1005.1
20260504081504 53 267 5.2 7.8 0.00 0.03 0.00 46 1005.1
20260504081007 53 269 5.2 7.8 0.00 0.03 0.00 47 1005.1
20260504080504 53 251 4.3 7.8 0.00 0.03 0.00 47 1005.1
20260504050504 54 282 6.1 7.8 0.00 0.03 0.03 52 1006.6
20260504050012 55 262 4.3 7.0 0.00 0.03 0.03 51 1006.6
20260504045503 54 256 4.3 7.0 0.00 0.03 0.03 52 1006.7
20260504045004 54 254 3.5 6.1 0.00 0.03 0.03 52 1006.8
20260504044514 54 267 2.6 7.0 0.00 0.03 0.03 52 1006.8
20260504044006 55 263 3.5 7.0 0.00 0.03 0.03 51 1006.8
20260504043508 55 244 3.5 6.1 0.00 0.03 0.03 53 1006.9
20260504043011 55 253 3.5 6.1 0.00 0.03 0.03 51 1006.9
20260504042506 57 256 3.5 7.8 0.00 0.03 0.03 47 1006.9
20260504042005 57 238 4.3 7.8 0.00 0.03 0.03 47 1007.0
20260504041512 56 265 3.5 7.8 0.00 0.03 0.03 49 1007.0
20260504041004 56 246 4.3 7.8 0.00 0.03 0.03 50 1007.1
20260504040507 54 360 2.6 7.0 0.00 0.03 0.03 53 1007.0
20260504040016 54 248 3.5 5.2 0.00 0.03 0.03 54 1007.0
20260504035504 54 259 2.6 5.2 0.00 0.03 0.03 51 1007.0
20260504035004 56 257 3.5 6.1 0.00 0.03 0.03 51 1006.9
20260504034519 56 254 3.5 7.8 0.00 0.03 0.03 53 1006.9
20260504034003 55 251 4.3 7.8 0.00 0.03 0.03 56 1006.9
20260504033504 52 242 2.6 5.2 0.00 0.03 0.03 63 1006.9
20260504033014 51 256 0.0 2.6 0.00 0.03 0.03 65 1006.9
20260504032506 52 252 1.7 2.6 0.00 0.03 0.03 63 1006.9
20260504032003 52 257 0.9 2.6 0.00 0.03 0.03 63 1006.8
20260504031517 52 252 1.7 1.7 0.00 0.03 0.03 64 1006.8
20260504031007 52 247 0.9 1.7 0.00 0.03 0.03 65 1006.7
20260504030508 52 242 0.0 1.7 0.00 0.03 0.03 65 1006.8
20260504030015 52 242 0.9 1.7 0.00 0.03 0.03 65 1006.7
20260504025507 53 238 0.9 1.7 0.00 0.03 0.03 62 1006.7
20260504025007 52 237 0.9 1.7 0.00 0.03 0.03 65 1006.7
20260504024519 52 235 0.0 1.7 0.00 0.03 0.03 64 1006.7
20260504024006 53 242 0.9 1.7 0.00 0.03 0.03 64 1006.6
20260504023506 52 242 0.0 1.7 0.00 0.03 0.03 68 1006.6
20260504023019 51 251 0.0 1.7 0.00 0.03 0.03 1006.6
20260504022506 53 360 0.9 1.7 0.00 0.03 0.03 1006.6
20260504022008 52 360 0.9 1.7 0.00 0.03 0.03 1006.6
20260504021519 52 360 0.9 1.7 0.00 0.03 0.03 63 1006.5
20260504021007 54 253 0.9 1.7 0.00 0.03 0.03 63 1006.5
20260504020503 54 259 0.9 2.6 0.00 0.03 0.03 65 1006.6
20260504020019 54 275 0.9 2.6 0.00 0.03 0.03 64 1006.6
20260504015507 55 166 0.9 2.6 0.00 0.03 0.03 63 1006.6
20260504015010 56 146 0.0 1.7 0.00 0.03 0.03 63 1006.5
20260504014519 57 145 0.9 1.7 0.00 0.03 0.03 61 1006.6
20260504014008 58 145 0.0 1.7 0.00 0.03 0.03 61 1006.7
20260504013507 58 145 0.0 1.7 0.00 0.03 0.03 61 1006.8
20260504013032 60 145 0.9 1.7 0.00 0.03 0.03 58 1006.9
20260504012507 61 145 0.0 1.7 0.00 0.03 0.03 56 1006.9
20260504012011 62 145 0.0 1.7 0.00 0.03 0.03 55 1007.0
20260504011518 63 145 0.0 5.2 0.00 0.03 0.03 51 1007.1
20260504011012 64 145 0.9 5.2 0.00 0.03 0.03 49 1007.1
20260504010507 64 136 2.6 4.3 0.00 0.03 0.03 50 1007.2
20260504010023 64 133 2.6 5.2 0.00 0.03 0.03 50 1007.3
20260504005507 65 157 1.7 5.2 0.00 0.03 0.03 49 1007.3
20260504005008 65 140 1.7 3.5 0.00 0.03 0.03 48 1007.4
20260504004524 66 150 1.7 2.6 0.00 0.03 0.03 46 1007.4
20260504004007 66 131 0.9 2.6 0.00 0.03 0.03 45 1007.5
20260504003507 66 130 1.7 3.5 0.00 0.03 0.03 42 1007.5
20260504003036 66 130 0.9 3.5 0.00 0.03 0.03 42 1007.6
20260504002508 66 160 0.0 3.5 0.00 0.03 0.03 44 1007.7
20260504002007 66 160 0.9 4.3 0.00 0.03 0.03 43 1007.7
20260504001524 67 156 1.7 6.1 0.00 0.03 0.03 45 1007.8
20260504001007 67 215 2.6 6.1 0.00 0.03 0.03 43 1007.8
20260504000507 67 142 2.6 9.6 0.00 0.03 0.03 39 1008.0
20260504000023 67 101 1.7 9.6 0.00 0.03 0.03 42 1008.1
20260503235507 67 59 3.5 7.8 0.00 0.03 0.03 45 1008.0
20260503235008 67 82 2.6 7.8 0.00 0.03 0.03 42 1008.0
20260503234524 67 219 1.7 3.5 0.00 0.03 0.03 46 1008.2
20260503234007 67 74 0.0 2.6 0.00 0.03 0.03 44 1008.2
20260503233508 67 74 0.9 2.6 0.00 0.03 0.03 44 1008.3
20260503233029 68 188 0.9 3.5 0.00 0.03 0.03 41 1008.3
20260503232509 67 157 1.7 3.5 0.00 0.03 0.03 42 1008.5
20260503232011 67 87 0.9 2.6 0.00 0.03 0.03 40 1008.5
20260503231524 67 288 0.9 3.5 0.00 0.03 0.03 45 1008.6
20260503231008 67 243 0.9 5.2 0.00 0.03 0.03 40 1008.7
20260503230509 67 257 1.7 8.7 0.00 0.03 0.03 44 1008.8
20260503230026 66 178 0.9 8.7 0.00 0.03 0.03 44 1008.9
20260503225507 67 176 4.3 7.8 0.00 0.03 0.03 42 1009.0
20260503225014 66 206 4.3 7.8 0.00 0.03 0.03 46 1009.1
20260503224528 66 128 5.2 8.7 0.00 0.03 0.03 46 1009.3
20260503224010 66 188 4.3 8.7 0.00 0.03 0.03 46 1009.4
20260503223507 66 169 2.6 11.3 0.00 0.03 0.03 45 1009.6
20260503223023 66 184 5.2 11.3 0.00 0.03 0.03 44 1009.8
20260503222507 66 198 3.5 8.7 0.00 0.03 0.03 44 1010.0
20260503222007 66 213 5.2 8.7 0.00 0.03 0.03 44 1010.1
20260503221524 66 279 3.5 7.0 0.00 0.03 0.03 45 1010.2
20260503221012 66 261 3.5 8.7 0.00 0.03 0.03 42 1010.3
20260503220504 66 243 4.3 8.7 0.00 0.03 0.03 44 1010.5
20260503220017 65 288 6.1 7.8 0.00 0.03 0.03 51 1010.6
20260503215502 63 259 2.6 7.8 0.00 0.03 0.03 49 1010.6
20260503215003 63 265 4.3 7.8 0.00 0.03 0.03 49 1010.7
20260503214514 64 286 2.6 7.8 0.00 0.03 0.03 49 1010.8
20260503214003 65 194 3.5 7.8 0.00 0.03 0.03 49 1010.7
20260503213504 65 277 2.6 7.0 0.00 0.03 0.03 51 1010.9
20260503213020 64 294 0.9 7.0 0.00 0.03 0.03 51 1011.1
20260503212506 64 289 3.5 6.1 0.00 0.03 0.03 55 1011.1
20260503212003 63 249 1.7 3.5 0.00 0.03 0.03 58 1011.1
20260503211505 62 257 0.9 4.3 0.00 0.03 0.03 54 1011.1
20260503211003 62 229 1.7 4.3 0.01 0.03 0.03 58 1011.1
20260503210503 61 242 2.6 3.5 0.03 0.03 0.03 61 1011.3
20260503210008 59 267 0.9 4.3 0.03 0.03 0.03 69 1011.5
20260503205504 56 239 1.7 5.2 0.03 0.03 0.03 68 1011.5
20260503205004 56 187 2.6 7.0 0.03 0.03 0.03 68 1011.7
20260503204512 56 360 4.3 7.8 0.03 0.03 0.03 66 1012.1
20260503204003 56 360 4.3 9.6 0.03 0.03 0.03 67 1012.3
20260503203506 56 229 3.5 9.6 0.03 0.03 0.03 70 1012.3
20260503203019 55 228 5.2 9.6 0.03 0.03 0.03 71 1012.4
20260503202509 55 242 5.2 7.8 0.03 0.03 0.03 71 1012.4
20260503202010 56 250 3.5 8.7 0.03 0.03 0.03 64 1012.4
20260503201524 57 231 3.5 17.4 0.03 0.03 0.03 64 1012.3
20260503201003 59 266 9.6 17.4 0.02 0.02 0.02 57 1012.6
20260503200505 62 277 6.1 13.9 0.00 0.00 0.00 52 1012.2
20260503200005 64 333 10.4 13.9 0.00 0.00 0.00 45 1011.9
20260503195504 65 326 6.1 11.3 0.00 0.00 0.00 39 1011.7
20260503195003 66 352 5.2 11.3 0.00 0.00 0.00 37 1011.7
20260503194512 66 321 1.7 7.0 0.00 0.00 0.00 38 1011.6
20260503194003 66 311 3.5 7.8 0.00 0.00 0.00 40 1011.6
20260503193507 67 284 0.9 8.7 0.00 0.00 0.00 39 1011.7
20260503193017 69 298 3.5 8.7 0.00 0.00 0.00 35 1011.8
20260503192506 69 278 3.5 8.7 0.00 0.00 0.00 34 1011.8
20260503192008 69 300 3.5 8.7 0.00 0.00 0.00 39 1011.9
20260503191520 67 341 2.6 7.8 0.00 0.00 0.00 40 1012.0
20260503191010 66 289 0.9 5.2 0.00 0.00 0.00 36 1012.0
20260503190509 67 40 1.7 7.8 0.00 0.00 0.00 38 1012.3
20260503190025 68 24 2.6 11.3 0.00 0.00 0.00 35 1012.4
20260503185503 68 350 7.8 11.3 0.00 0.00 0.00 38 1012.4
20260503185004 67 336 5.2 8.7 0.00 0.00 0.00 40 1012.4
20260503184513 66 313 3.5 7.0 0.00 0.00 0.00 38 1012.7
20260503184007 66 261 0.9 7.0 0.00 0.00 0.00 40 1012.7
20260503183504 66 296 3.5 10.4 0.00 0.00 0.00 37 1012.8
20260503183016 66 331 4.3 10.4 0.00 0.00 0.00 37 1012.8
20260503182503 67 334 3.5 10.4 0.00 0.00 0.00 34 1013.0
20260503182007 68 312 7.0 10.4 0.00 0.00 0.00 36 1013.0
20260503181517 67 339 6.1 11.3 0.00 0.00 0.00 37 1013.0
20260503181007 67 306 7.0 11.3 0.00 0.00 0.00 36 1013.1
20260503180508 67 284 4.3 10.4 0.00 0.00 0.00 39 1013.2
20260503180031 67 303 5.2 13.9 0.00 0.00 0.00 36 1013.3
20260503175507 67 9 7.8 13.9 0.00 0.00 0.00 39 1013.3
20260503175007 68 309 7.8 11.3 0.00 0.00 0.00 38 1013.4
20260503174530 67 329 7.0 10.4 0.00 0.00 0.00 38 1013.5
20260503174003 67 11 6.1 10.4 0.00 0.00 0.00 39 1013.6
20260503173504 66 360 3.5 13.0 0.00 0.00 0.00 38 1013.7
20260503173010 66 39 5.2 13.0 0.00 0.00 0.00 39 1013.8
20260503172504 66 319 5.2 10.4 0.00 0.00 0.00 40 1013.9
20260503172004 66 32 4.3 10.4 0.00 0.00 0.00 39 1014.0
20260503171516 66 328 6.1 10.4 0.00 0.00 0.00 41 1014.1
20260503171003 66 35 5.2 9.6 0.00 0.00 0.00 41 1014.1
20260503170507 64 316 2.6 7.0 0.00 0.00 0.00 41 1014.2